When you browse on this site, cookies collect data to enhance your experience and personalize the content and advertising you see.
Visit our Privacy Policy to learn more. By continuing to use the site, you agree to this use of cookies and data.
  • In Belgien
  • Länderverzeichnis
  • Für 7 Tage
  • Wassertemperatur
  • Satellitenkarten
  • Wetterkarte
  • Widgets
  • user-avatar
    Anmelden

    Stündliche Wetter Gent

    Heute, 23 Februar, Samstag

    Zeit Temperatur Niederschläge Wind Luftdruck Luftfeuchtigkeit
    00:00 +8°C° 0 mm 3 m/S 776 mmHg 90%
    01:00 +7°C° 0 mm 3 m/S 776 mmHg 91%
    02:00 +7°C° 0 mm 3 m/S 776 mmHg 91%
    03:00 +7°C° 0 mm 3 m/S 776 mmHg 91%
    04:00 +6°C° 0 mm 2 m/S 776 mmHg 90%
    05:00 +6°C° 0 mm 2 m/S 776 mmHg 90%
    06:00 +6°C° 0 mm 2 m/S 776 mmHg 90%
    07:00 +7°C° 0 mm 3 m/S 776 mmHg 85%
    08:00 +7°C° 0 mm 3 m/S 776 mmHg 81%
    09:00 +8°C° 0 mm 3 m/S 776 mmHg 77%
    10:00 +10°C° 0 mm 3 m/S 776 mmHg 70%
    11:00 +11°C° 0 mm 3 m/S 776 mmHg 63%
    12:00 +13°C° 0 mm 3 m/S 776 mmHg 56%
    13:00 +13°C° 0 mm 3 m/S 775 mmHg 54%
    14:00 +13°C° 0 mm 3 m/S 775 mmHg 52%
    15:00 +15°C° 0 mm 2 m/S 775 mmHg 50%
    16:00 +13°C° 0 mm 2 m/S 775 mmHg 54%
    17:00 +12°C° 0 mm 2 m/S 775 mmHg 58%
    18:00 +10°C° 0 mm 2 m/S 775 mmHg 63%
    19:00 +9°C° 0 mm 2 m/S 775 mmHg 61%
    20:00 +8°C° 0 mm 3 m/S 776 mmHg 60%
    21:00 +8°C° 0 mm 3 m/S 776 mmHg 59%
    22:00 +7°C° 0 mm 2 m/S 776 mmHg 57%
    23:00 +6°C° 0 mm 2 m/S 776 mmHg 54%

    Morgen, 24 Februar, Sonntag

    Zeit Temperatur Niederschläge Wind Luftdruck Luftfeuchtigkeit
    00:00 +6°C° 0 mm 2 m/S 776 mmHg 52%
    01:00 +5°C° 0 mm 2 m/S 776 mmHg 50%
    02:00 +5°C° 0 mm 2 m/S 776 mmHg 49%
    03:00 +5°C° 0 mm 2 m/S 776 mmHg 47%
    04:00 +4°C° 0 mm 2 m/S 776 mmHg 45%
    05:00 +4°C° 0 mm 2 m/S 776 mmHg 44%
    06:00 +4°C° 0 mm 2 m/S 776 mmHg 43%
    07:00 +5°C° 0 mm 2 m/S 777 mmHg 42%
    08:00 +6°C° 0 mm 2 m/S 777 mmHg 41%
    09:00 +7°C° 0 mm 2 m/S 777 mmHg 39%
    10:00 +9°C° 0 mm 2 m/S 777 mmHg 36%
    11:00 +12°C° 0 mm 2 m/S 777 mmHg 33%
    12:00 +13°C° 0 mm 2 m/S 777 mmHg 29%
    13:00 +14°C° 0 mm 2 m/S 777 mmHg 31%
    14:00 +14°C° 0 mm 2 m/S 777 mmHg 33%
    15:00 +15°C° 0 mm 2 m/S 776 mmHg 34%
    16:00 +14°C° 0 mm 2 m/S 776 mmHg 38%
    17:00 +12°C° 0 mm 2 m/S 776 mmHg 42%
    18:00 +10°C° 0 mm 2 m/S 777 mmHg 45%
    19:00 +9°C° 0 mm 2 m/S 777 mmHg 47%
    20:00 +9°C° 0 mm 2 m/S 777 mmHg 49%
    21:00 +8°C° 0 mm 2 m/S 777 mmHg 51%
    22:00 +8°C° 0 mm 2 m/S 777 mmHg 53%
    23:00 +8°C° 0 mm 2 m/S 777 mmHg 54%

    übermorgen, 25 Februar, Montag

    Zeit Temperatur Niederschläge Wind Luftdruck Luftfeuchtigkeit
    00:00 +7°C° 0 mm 2 m/S 777 mmHg 56%
    01:00 +7°C° 0 mm 2 m/S 777 mmHg 54%
    02:00 +8°C° 0 mm 1 m/S 777 mmHg 53%
    03:00 +8°C° 0 mm 1 m/S 777 mmHg 51%
    04:00 +8°C° 0 mm 1 m/S 777 mmHg 50%
    05:00 +7°C° 0 mm 1 m/S 777 mmHg 50%
    06:00 +7°C° 0 mm 1 m/S 777 mmHg 50%
    07:00 +8°C° 0 mm 1 m/S 778 mmHg 49%
    08:00 +8°C° 0 mm 2 m/S 778 mmHg 49%
    09:00 +9°C° 0 mm 2 m/S 778 mmHg 48%
    10:00 +12°C° 0 mm 2 m/S 778 mmHg 45%
    11:00 +14°C° 0 mm 2 m/S 777 mmHg 42%
    12:00 +15°C° 0 mm 2 m/S 777 mmHg 40%
    13:00 +16°C° 0 mm 2 m/S 777 mmHg 40%
    14:00 +18°C° 0 mm 1 m/S 777 mmHg 41%
    15:00 +18°C° 0 mm 1 m/S 777 mmHg 42%
    16:00 +16°C° 0 mm 1 m/S 777 mmHg 46%
    17:00 +14°C° 0 mm 2 m/S 777 mmHg 50%
    18:00 +12°C° 0 mm 2 m/S 777 mmHg 55%
    19:00 +12°C° 0 mm 2 m/S 777 mmHg 57%
    20:00 +10°C° 0 mm 2 m/S 777 mmHg 58%
    21:00 +10°C° 0 mm 2 m/S 777 mmHg 60%
    22:00 +10°C° 0 mm 2 m/S 777 mmHg 64%
    23:00 +9°C° 0 mm 2 m/S 776 mmHg 68%

    26 Februar, Dienstag

    Zeit Temperatur Niederschläge Wind Luftdruck Luftfeuchtigkeit
    00:00 +9°C° 0 mm 2 m/S 776 mmHg 72%
    01:00 +9°C° 0 mm 2 m/S 776 mmHg 72%
    02:00 +8°C° 0 mm 2 m/S 776 mmHg 72%
    03:00 +9°C° 0 mm 1 m/S 776 mmHg 72%
    04:00 +9°C° 0 mm 1 m/S 775 mmHg 70%
    05:00 +8°C° 0 mm 1 m/S 775 mmHg 69%
    06:00 +8°C° 0 mm 1 m/S 775 mmHg 67%
    07:00 +9°C° 0 mm 1 m/S 775 mmHg 63%
    08:00 +10°C° 0 mm 1 m/S 775 mmHg 60%
    09:00 +11°C° 0 mm 1 m/S 776 mmHg 56%
    10:00 +13°C° 0 mm 2 m/S 775 mmHg 52%
    11:00 +15°C° 0 mm 2 m/S 775 mmHg 47%
    12:00 +17°C° 0 mm 2 m/S 775 mmHg 42%
    13:00 +17°C° 0 mm 2 m/S 775 mmHg 43%
    14:00 +18°C° 0 mm 2 m/S 774 mmHg 43%
    15:00 +18°C° 0 mm 3 m/S 774 mmHg 43%
    16:00 +16°C° 0 mm 2 m/S 774 mmHg 48%
    17:00 +15°C° 0 mm 2 m/S 774 mmHg 53%
    18:00 +13°C° 0 mm 2 m/S 774 mmHg 58%
    19:00 +12°C° 0 mm 2 m/S 774 mmHg 61%
    20:00 +12°C° 0 mm 2 m/S 774 mmHg 64%
    21:00 +10°C° 0 mm 2 m/S 773 mmHg 67%
    22:00 +10°C° 0 mm 2 m/S 773 mmHg 69%
    23:00 +9°C° 0 mm 2 m/S 773 mmHg 71%

    27 Februar, Mittwoch

    Zeit Temperatur Niederschläge Wind Luftdruck Luftfeuchtigkeit
    00:00 +8°C° 0 mm 2 m/S 773 mmHg 73%
    01:00 +8°C° 0 mm 2 m/S 773 mmHg 74%
    02:00 +8°C° 0 mm 2 m/S 772 mmHg 74%
    03:00 +7°C° 0 mm 2 m/S 772 mmHg 75%
    04:00 +7°C° 0 mm 2 m/S 772 mmHg 76%
    05:00 +6°C° 0 mm 2 m/S 772 mmHg 77%
    06:00 +6°C° 0 mm 2 m/S 771 mmHg 77%
    07:00 +7°C° 0 mm 2 m/S 771 mmHg 74%
    08:00 +8°C° 0 mm 3 m/S 771 mmHg 70%
    09:00 +9°C° 0 mm 3 m/S 771 mmHg 66%
    10:00 +11°C° 0 mm 3 m/S 771 mmHg 62%
    11:00 +14°C° 0 mm 2 m/S 771 mmHg 57%
    12:00 +16°C° 0 mm 2 m/S 770 mmHg 53%
    13:00 +16°C° 0 mm 2 m/S 770 mmHg 52%
    14:00 +17°C° 0 mm 2 m/S 769 mmHg 52%
    15:00 +18°C° 0 mm 2 m/S 769 mmHg 51%
    16:00 +16°C° 0 mm 2 m/S 769 mmHg 57%
    17:00 +14°C° 0 mm 2 m/S 769 mmHg 62%
    18:00 +13°C° 0 mm 2 m/S 769 mmHg 68%
    19:00 +12°C° 0 mm 2 m/S 769 mmHg 70%
    20:00 +12°C° 0 mm 2 m/S 769 mmHg 73%
    21:00 +10°C° 0 mm 2 m/S 769 mmHg 75%
    22:00 +10°C° 0 mm 2 m/S 768 mmHg 78%
    23:00 +9°C° 0 mm 2 m/S 768 mmHg 81%

    28 Februar, Donnerstag

    Zeit Temperatur Niederschläge Wind Luftdruck Luftfeuchtigkeit
    00:00 +9°C° 0 mm 3 m/S 768 mmHg 83%
    01:00 +8°C° 0 mm 3 m/S 768 mmHg 84%
    02:00 +8°C° 0 mm 3 m/S 768 mmHg 85%
    03:00 +8°C° 0 mm 3 m/S 768 mmHg 86%
    04:00 +7°C° 0 mm 3 m/S 768 mmHg 87%
    05:00 +7°C° 0 mm 3 m/S 768 mmHg 88%
    06:00 +7°C° 0 mm 3 m/S 768 mmHg 89%
    07:00 +8°C° 0 mm 3 m/S 768 mmHg 87%
    08:00 +9°C° 0 mm 3 m/S 768 mmHg 85%
    09:00 +10°C° 0 mm 3 m/S 768 mmHg 82%
    10:00 +12°C° 0 mm 3 m/S 768 mmHg 76%
    11:00 +13°C° 0 mm 4 m/S 768 mmHg 70%
    12:00 +14°C° 0 mm 4 m/S 768 mmHg 64%
    13:00 +14°C° 0 mm 4 m/S 767 mmHg 63%
    14:00 +14°C° 0 mm 4 m/S 767 mmHg 63%
    15:00 +14°C° 0 mm 4 m/S 767 mmHg 62%
    16:00 +13°C° 0 mm 3 m/S 767 mmHg 69%
    17:00 +12°C° 0 mm 2 m/S 767 mmHg 75%
    18:00 +10°C° 0 mm 2 m/S 767 mmHg 81%
    19:00 +10°C° 0 mm 2 m/S 767 mmHg 83%
    20:00 +9°C° 0 mm 2 m/S 767 mmHg 86%
    21:00 +10°C° 0 mm 1 m/S 767 mmHg 88%
    22:00 +10°C° 0 mm 1 m/S 767 mmHg 89%
    23:00 +9°C° 0 mm 1 m/S 767 mmHg 90%
    Mehr zeigen